FW7212 Weather Reports


time (UTC)temp
F
wind
direction
speed
knots
gust
knots
rain 1hr
in
rain 24hr
in
rain mn
in
humidity
%
barometer
mb
20260510203050 71 329 0.9 3.5 0.00 0.00 0.00 46 1014.3
20260510202601 71 11 0.9 3.5 0.00 0.00 0.00 47 1014.2
20260510202502 71 38 0.9 3.5 0.00 0.00 0.00 47 1014.2
20260510202017 71 319 0.9 3.5 0.00 0.00 0.00 46 1014.2
20260510201528 70 311 0.0 2.6 0.00 0.00 0.00 49 1014.2
20260510201045 69 345 0.0 4.3 0.00 0.00 0.00 50 1014.2
20260510200556 69 5 0.0 6.1 0.00 0.00 0.00 49 1014.2
20260510200014 69 273 0.9 4.3 0.00 0.00 0.00 47 1014.3
20260510195522 69 277 0.9 5.2 0.00 0.00 0.00 49 1014.3
20260510195036 69 300 0.0 5.2 0.00 0.00 0.00 48 1014.3
20260510194548 70 273 1.7 5.2 0.00 0.00 0.00 49 1014.3
20260510194036 70 338 0.9 5.2 0.00 0.00 0.00 48 1014.3
20260510193549 70 88 0.0 3.5 0.00 0.00 0.00 46 1014.3
20260510193108 70 329 0.0 4.3 0.00 0.00 0.00 46 1014.4
20260510192516 71 289 1.7 4.3 0.00 0.00 0.00 47 1014.5
20260510192026 70 273 0.9 4.3 0.00 0.00 0.00 53 1014.6
20260510191541 70 332 0.9 4.3 0.00 0.00 0.00 50 1014.5
20260510191052 70 290 0.0 4.3 0.00 0.00 0.00 46 1014.5
20260510190508 69 300 1.7 4.3 0.00 0.00 0.00 45 1014.6
20260510190018 70 327 1.7 10.4 0.00 0.00 0.00 44 1014.6
20260510185534 70 11 0.9 10.4 0.00 0.00 0.00 47 1014.6
20260510185042 70 306 0.9 4.3 0.00 0.00 0.00 46 1014.5
20260510184556 69 301 1.7 4.3 0.00 0.00 0.00 47 1014.5
20260510184008 69 46 0.0 3.5 0.00 0.00 0.00 46 1014.5
20260510183522 69 51 0.0 4.3 0.00 0.00 0.00 46 1014.6
20260510183039 69 335 0.9 4.3 0.00 0.00 0.00 48 1014.6
20260510182550 68 10 0.9 4.3 0.00 0.00 0.00 49 1014.7
20260510182102 68 281 0.9 3.5 0.00 0.00 0.00 49 1014.5
20260510181515 68 273 0.9 5.2 0.00 0.00 0.00 50 1014.3
20260510181025 68 32 1.7 7.0 0.00 0.00 0.00 50 1014.2
20260510180539 68 311 2.6 7.0 0.00 0.00 0.00 49 1014.3
20260510180058 68 273 2.6 5.2 0.00 0.00 0.00 47 1014.3
20260510175508 68 276 1.7 5.2 0.00 0.00 0.00 49 1014.3
20260510175021 68 347 1.7 3.5 0.00 0.00 0.00 54 1014.4
20260510174530 67 319 0.0 2.6 0.00 0.00 0.00 51 1014.3
20260510174045 67 169 0.0 3.5 0.00 0.00 0.00 50 1014.4
20260510173556 67 183 0.0 3.5 0.00 0.00 0.00 50 1014.3
20260510173012 66 309 0.0 3.5 0.00 0.00 0.00 46 1014.4
20260510172523 66 319 0.0 2.6 0.00 0.00 0.00 55 1014.3
20260510172036 65 315 0.9 4.3 0.00 0.00 0.00 51 1014.3
20260510171549 65 32 0.9 8.7 0.00 0.00 0.00 51 1014.3
20260510171007 65 336 1.7 4.3 0.00 0.00 0.00 50 1014.4
20260510170514 65 317 1.7 4.3 0.00 0.00 0.00 52 1014.6
20260510170034 65 267 0.9 6.1 0.00 0.00 0.00 52 1014.5
20260510165538 65 284 0.9 7.8 0.00 0.00 0.00 59 1014.6
20260510165053 64 308 2.6 5.2 0.00 0.00 0.00 58 1014.5
20260510164504 64 300 0.9 2.6 0.00 0.00 0.00 67 1014.5
20260510164018 64 70 0.0 3.5 0.00 0.00 0.00 64 1014.4
20260510163528 63 11 0.0 3.5 0.00 0.00 0.00 63 1014.4
20260510163045 63 281 0.9 3.5 0.00 0.00 0.00 67 1014.4
20260510162553 63 335 0.9 2.6 0.00 0.00 0.00 64 1014.3
20260510162010 63 300 0.9 3.5 0.00 0.00 0.00 69 1014.2
20260510161518 62 22 0.0 1.7 0.00 0.00 0.00 75 1014.2
20260510161032 62 24 0.0 1.7 0.00 0.00 0.00 75 1014.0
20260510160536 61 24 0.0 1.7 0.00 0.00 0.00 71 1014.0
20260510160059 61 130 0.0 1.7 0.00 0.00 0.00 73 1014.0
20260510155600 60 296 0.0 1.7 0.00 0.00 0.00 74 1014.1
20260510155510 60 296 0.0 1.7 0.00 0.00 0.00 75 1014.1
20260510155050 60 225 0.0 1.7 0.00 0.00 0.00 76 1014.1
20260510154501 60 157 0.0 1.7 0.00 0.00 0.00 76 1013.8
20260510154058 60 192 0.0 0.9 0.00 0.00 0.00 78 1013.7
20260510153512 60 232 0.0 1.7 0.00 0.00 0.00 78 1013.6
20260510153031 60 112 0.0 3.5 0.00 0.00 0.00 78 1013.7
20260510152538 60 273 0.0 3.5 0.00 0.00 0.00 81 1013.7
20260510152056 59 74 0.0 3.5 0.00 0.00 0.00 80 1013.5
20260510151508 59 310 0.0 1.7 0.00 0.00 0.00 82 1013.4
20260510151016 59 331 0.0 1.7 0.00 0.00 0.00 84 1013.4
20260510150531 58 331 0.0 1.7 0.00 0.00 0.00 84 1013.1
20260510150042 58 331 0.0 1.7 0.00 0.00 0.00 84 1013.2
20260510145538 58 293 0.0 0.9 0.00 0.00 0.00 85 1013.4
20260510145046 58 293 0.0 0.9 0.00 0.00 0.00 85 1013.4
20260510144522 58 293 0.0 1.7 0.00 0.00 0.00 86 1013.4
20260510144026 58 293 0.0 1.7 0.00 0.00 0.00 86 1013.4
20260510143534 57 293 0.0 0.9 0.00 0.00 0.00 87 1013.3
20260510143052 57 293 0.0 0.9 0.00 0.00 0.00 88 1013.3
20260510142558 57 293 0.0 0.0 0.00 0.00 0.00 86 1013.2
20260510142508 57 293 0.0 0.0 0.00 0.00 0.00 86 1013.2
20260510142025 57 293 0.0 0.9 0.00 0.00 0.00 87 1013.3
20260510141543 57 293 0.0 1.7 0.00 0.00 0.00 87 1013.3
20260510141039 57 293 0.0 0.9 0.00 0.00 0.00 88 1013.3
20260510140554 57 293 0.0 0.9 0.00 0.00 0.00 88 1013.3
20260510140008 57 293 0.0 1.7 0.00 0.03 0.00 88 1013.3
20260510135559 57 293 0.0 0.9 0.00 0.03 0.00 88 1013.3
20260510135001 57 293 0.0 0.0 0.00 0.03 0.00 88 1013.2
20260510134540 57 293 0.0 0.0 0.00 0.03 0.00 88 1012.9
20260510134057 57 293 0.0 0.9 0.00 0.03 0.00 87 1012.7
20260510133555 57 293 0.0 0.9 0.00 0.03 0.00 86 1012.6
20260510133008 57 293 0.0 0.9 0.00 0.03 0.00 86 1012.6
20260510132518 57 293 0.0 0.9 0.00 0.03 0.00 85 1012.7
20260510132104 57 293 0.0 0.9 0.00 0.03 0.00 86 1012.6
20260510131608 57 293 0.0 0.9 0.00 0.03 0.00 86 1012.3
20260510131048 57 293 0.0 0.9 0.00 0.03 0.00 86 1012.3
20260510130604 57 293 0.0 0.9 0.00 0.03 0.00 87 1012.3
20260510130502 57 293 0.0 0.9 0.00 0.03 0.00 87 1012.3
20260510130027 57 293 0.0 0.9 0.00 0.10 0.00 86 1012.4
20260510125528 57 293 0.0 0.9 0.00 0.10 0.00 87 1012.5
20260510125019 57 293 0.0 0.9 0.00 0.10 0.00 87 1012.3
20260510124555 56 293 0.0 0.9 0.00 0.10 0.00 86 1012.2
20260510124016 56 293 0.0 0.9 0.00 0.10 0.00 87 1012.2
20260510123517 56 293 0.0 0.9 0.00 0.10 0.00 87 1012.1
20260510123030 56 293 0.0 0.0 0.00 0.10 0.00 87 1012.1
20260510122544 56 293 0.0 0.0 0.00 0.10 0.00 86 1011.8
20260510122054 56 293 0.0 1.7 0.00 0.10 0.00 86 1011.7
20260510121502 56 293 0.0 1.7 0.00 0.10 0.00 86 1012.0
20260510121016 56 293 0.0 0.9 0.00 0.10 0.00 86 1011.9
20260510120511 56 293 0.0 1.7 0.00 0.10 0.00 87 1011.8
20260510120031 56 293 0.0 0.9 0.00 0.10 0.00 87 1011.9
20260510115534 56 293 0.0 1.7 0.00 0.19 0.00 87 1011.8
20260510115025 56 293 0.0 1.7 0.00 0.19 0.00 87 1011.8
20260510114534 56 293 0.0 1.7 0.00 0.19 0.00 87 1011.5
20260510114049 56 293 0.0 1.7 0.00 0.19 0.00 88 1011.5
20260510113559 56 293 0.0 1.7 0.00 0.19 0.00 88 1011.4
20260510113059 56 293 0.0 1.7 0.00 0.19 0.00 88 1011.2
20260510112558 56 293 0.0 1.7 0.00 0.19 0.00 89 1011.1
20260510112018 56 305 0.0 1.7 0.00 0.19 0.00 89 1011.0
20260510111630 56 305 0.0 1.7 0.00 0.19 0.00 88 1010.9
20260510111502 56 305 0.0 1.7 0.00 0.19 0.00 88 1010.9
20260510111016 56 305 0.0 1.7 0.00 0.19 0.00 88 1010.8
20260510110526 56 305 0.0 1.7 0.00 0.19 0.00 88 1010.7
20260510110035 56 266 0.9 1.7 0.00 0.19 0.00 88 1010.5
20260510105530 56 266 0.0 1.7 0.00 0.22 0.00 88 1010.4
20260510105045 56 266 0.0 1.7 0.00 0.22 0.00 88 1010.2
20260510104607 56 266 0.0 0.9 0.00 0.22 0.00 88 1010.1
20260510104046 56 266 0.0 0.9 0.00 0.22 0.00 87 1010.0
20260510103556 56 266 0.0 1.7 0.00 0.22 0.00 87 1009.9
20260510103012 56 266 0.0 3.5 0.00 0.22 0.00 87 1009.8
20260510102605 56 259 0.9 3.5 0.00 0.22 0.00 87 1009.7
20260510102013 56 265 0.9 1.7 0.00 0.22 0.00 86 1009.4
20260510101525 56 265 0.0 1.7 0.00 0.22 0.00 87 1009.3
20260510101040 56 245 0.0 3.5 0.00 0.22 0.00 86 1009.3
20260510100528 56 240 0.0 3.5 0.00 0.22 0.00 86 1009.4
20260510100041 56 227 0.0 3.5 0.00 0.22 0.00 86 1009.4
20260510095550 57 202 0.0 4.3 0.00 0.23 0.00 86 1009.2
20260510095046 57 261 0.9 4.3 0.00 0.23 0.00 86 1009.1
20260510094551 57 262 0.0 4.3 0.00 0.23 0.00 86 1009.2
20260510094008 57 197 0.0 1.7 0.00 0.23 0.00 85 1009.0
20260510093507 57 196 0.0 3.5 0.00 0.23 0.00 85 1009.0
20260510093014 57 240 0.0 4.3 0.00 0.23 0.00 85 1008.8
20260510092523 57 272 0.0 4.3 0.00 0.23 0.00 85 1008.5
20260510092039 57 259 0.0 4.3 0.00 0.23 0.00 85 1008.6
20260510091546 57 173 0.0 3.5 0.00 0.23 0.00 85 1008.5
20260510091040 57 266 0.9 3.5 0.00 0.23 0.00 85 1008.5
20260510090555 57 252 0.0 3.5 0.00 0.23 0.00 85 1008.4
20260510090105 57 219 0.0 1.7 0.00 0.23 0.00 85 1008.5
20260510085557 57 192 0.0 3.5 0.00 0.26 0.00 85 1008.3
20260510085013 57 213 0.0 3.5 0.00 0.26 0.00 84 1008.4
20260510084525 58 255 0.0 1.7 0.00 0.26 0.00 84 1008.5
20260510084012 58 254 0.0 1.7 0.00 0.26 0.00 84 1008.3
20260510083521 58 254 0.0 4.3 0.00 0.26 0.00 84 1008.1
20260510083037 58 171 0.0 4.3 0.00 0.26 0.00 84 1008.1
20260510082525 58 213 0.9 4.3 0.00 0.26 0.00 84 1008.1
20260510082040 58 251 0.0 4.3 0.00 0.26 0.00 84 1008.2
20260510081550 58 221 0.0 4.3 0.00 0.26 0.00 84 1008.2
20260510081104 58 204 0.9 5.2 0.00 0.26 0.00 84 1008.2
20260510080552 58 271 0.9 5.2 0.00 0.26 0.00 83 1008.3
20260510080012 58 237 0.9 5.2 0.00 0.27 0.00 83 1008.2
20260510075524 58 217 0.9 5.2 0.00 0.27 0.00 83 1008.2
20260510075016 58 198 0.9 5.2 0.00 0.27 0.00 83 1008.2
20260510074532 58 209 1.7 5.2 0.00 0.27 0.00 83 1008.2
20260510074045 58 229 0.0 4.3 0.00 0.27 0.00 83 1008.2
20260510073542 58 201 0.9 6.1 0.00 0.27 0.00 83 1008.0
20260510073046 58 251 1.7 6.1 0.00 0.27 0.00 83 1008.0
20260510072600 58 255 0.9 5.2 0.00 0.27 0.00 83 1008.0
20260510072502 58 286 1.7 5.2 0.00 0.27 0.00 83 1008.0
20260510072013 58 174 1.7 5.2 0.00 0.27 0.00 83 1008.0
20260510071601 58 180 0.9 5.2 0.00 0.27 0.00 83 1008.0
20260510071502 58 227 1.7 5.2 0.00 0.27 0.00 83 1008.1
20260510071014 58 268 0.0 4.3 0.00 0.27 0.00 83 1008.2
20260510070528 58 244 0.9 4.3 0.00 0.27 0.00 82 1008.3
20260510070019 58 267 0.9 4.3 0.00 0.27 0.00 82 1008.2
20260510065526 58 212 0.9 4.3 0.00 0.27 0.00 82 1008.2
20260510065037 58 207 0.9 5.2 0.00 0.27 0.00 82 1008.2
20260510064605 58 207 0.0 5.2 0.00 0.27 0.00 81 1008.1
20260510064040 59 223 0.9 3.5 0.00 0.27 0.00 81 1008.1
20260510063554 59 267 0.0 4.3 0.00 0.27 0.00 81 1008.1
20260510063014 59 246 1.7 5.2 0.00 0.27 0.00 81 1008.1
20260510062600 59 236 1.7 5.2 0.00 0.27 0.00 80 1008.2
20260510062010 59 270 1.7 6.1 0.00 0.27 0.00 80 1008.1
20260510061540 59 234 1.7 6.1 0.00 0.27 0.00 80 1008.0
20260510061012 59 220 0.9 6.1 0.00 0.27 0.00 80 1008.1
20260510060526 59 236 1.7 5.2 0.00 0.27 0.00 79 1008.2
20260510060040 59 217 1.7 6.1 0.00 0.27 0.00 79 1008.2
20260510055549 59 271 0.9 6.1 0.00 0.27 0.00 79 1008.0
20260510055037 60 184 0.9 5.2 0.00 0.27 0.00 79 1008.1
20260510054550 60 264 1.7 5.2 0.00 0.27 0.00 79 1008.1
20260510054059 60 214 2.6 7.8 0.00 0.27 0.00 78 1008.1
20260510054003 60 224 1.7 7.8 0.00 0.27 0.00 78 1008.1
20260510053549 60 252 2.6 7.8 0.00 0.27 0.00 78 1008.1
20260510053100 60 248 0.9 5.2 0.00 0.27 0.00 78 1008.0
20260510052520 60 263 0.9 6.1 0.00 0.27 0.00 77 1008.1
20260510052015 60 252 1.7 7.0 0.00 0.27 0.00 77 1008.0
20260510051514 60 243 1.7 5.2 0.00 0.27 0.00 77 1008.1
20260510051026 60 193 0.0 7.8 0.00 0.27 0.00 76 1008.1
20260510050543 60 242 1.7 8.7 0.00 0.27 0.00 76 1008.0
20260510050034 60 230 1.7 7.8 0.00 0.27 0.00 76 1007.9
20260510045542 61 202 0.0 7.0 0.00 0.27 0.00 76 1007.9
20260510045052 61 157 3.5 7.8 0.00 0.27 0.00 75 1007.9
20260510044609 61 264 0.9 7.8 0.00 0.27 0.00 75 1007.9
20260510044100 61 201 0.0 5.2 0.00 0.27 0.00 74 1007.9
20260510044004 61 161 0.9 5.2 0.00 0.27 0.00 74 1007.9
20260510043516 61 167 0.9 9.6 0.00 0.27 0.00 74 1007.8
20260510043026 61 201 1.7 9.6 0.00 0.27 0.00 74 1007.8
20260510042523 61 281 0.0 7.0 0.00 0.27 0.00 74 1007.8
20260510042033 61 175 0.9 7.0 0.00 0.27 0.00 73 1007.6
20260510041602 61 227 1.7 8.7 0.00 0.27 0.00 73 1007.7
20260510041041 61 264 2.6 8.7 0.00 0.27 0.00 73 1007.7
20260510040556 61 134 1.7 9.6 0.00 0.27 0.00 73 1007.7
20260510040010 61 253 3.5 9.6 0.00 0.27 0.27 73 1007.6
20260510035609 61 189 2.6 7.8 0.00 0.27 0.27 73 1007.6
20260510035003 61 246 2.6 7.8 0.00 0.27 0.27 72 1007.6
20260510034513 61 207 1.7 7.0 0.00 0.27 0.27 72 1007.6
20260510034026 61 261 0.0 7.0 0.00 0.27 0.27 72 1007.6
20260510033510 61 284 1.7 6.1 0.00 0.27 0.27 72 1007.7
20260510033025 62 202 0.9 6.1 0.00 0.27 0.27 71 1007.7
20260510032535 62 207 0.0 6.1 0.00 0.27 0.27 71 1007.6
20260510032032 62 296 1.7 6.1 0.00 0.27 0.27 71 1007.6
20260510031547 62 200 0.0 4.3 0.00 0.27 0.27 70 1007.5
20260510031053 62 167 0.9 7.0 0.00 0.27 0.27 70 1007.5
20260510030506 62 226 2.6 7.0 0.00 0.27 0.27 70 1007.5
20260510030007 62 194 0.9 6.1 0.00 0.27 0.27 70 1007.5
20260510025518 62 229 0.9 7.0 0.00 0.27 0.27 70 1007.3
20260510025033 62 244 0.9 7.0 0.00 0.27 0.27 70 1007.4
20260510024517 62 182 0.0 5.2 0.00 0.27 0.27 70 1007.3
20260510024032 62 157 0.9 7.0 0.00 0.27 0.27 70 1007.2
20260510023546 62 248 0.9 7.0 0.00 0.27 0.27 70 1007.2
20260510023054 62 184 0.0 6.1 0.00 0.27 0.27 70 1007.1
20260510022554 63 236 1.7 7.8 0.00 0.27 0.27 69 1007.1
20260510022007 63 194 0.0 6.1 0.00 0.27 0.27 69 1007.0
20260510021521 63 178 0.9 4.3 0.00 0.27 0.27 69 1007.1
20260510021012 63 259 0.0 4.3 0.00 0.27 0.27 68 1006.9
20260510020527 63 96 0.0 4.3 0.00 0.27 0.27 68 1006.9
20260510020037 63 106 0.9 5.2 0.00 0.27 0.27 68 1006.9
20260510015543 63 211 0.9 6.1 0.00 0.27 0.27 67 1006.9
20260510015047 63 179 1.7 7.8 0.00 0.27 0.27 67 1006.8
20260510014503 63 123 0.0 7.8 0.00 0.27 0.27 67 1006.8
20260510014016 64 198 0.9 4.3 0.00 0.27 0.27 66 1006.7
20260510013511 64 192 0.0 5.2 0.00 0.27 0.27 66 1006.7
20260510013023 64 202 0.9 6.1 0.00 0.27 0.27 66 1006.6
20260510012536 64 235 0.0 6.1 0.00 0.27 0.27 65 1006.5
20260510012024 64 202 0.0 7.0 0.00 0.27 0.27 64 1006.4
20260510011541 65 128 0.0 5.2 0.00 0.27 0.27 64 1006.4
20260510011048 65 136 1.7 5.2 0.00 0.27 0.27 64 1006.3
20260510010604 65 192 0.0 4.3 0.00 0.27 0.27 63 1006.3
20260510010053 65 194 0.0 4.3 0.00 0.27 0.27 63 1006.2
20260510005511 65 173 0.0 4.3 0.00 0.27 0.27 62 1006.2
20260510005020 66 206 0.9 5.2 0.00 0.27 0.27 62 1006.1
20260510004513 66 101 0.9 5.2 0.00 0.27 0.27 62 1005.9
20260510004025 66 243 0.0 4.3 0.00 0.27 0.27 62 1005.9
20260510003547 66 254 0.9 6.1 0.00 0.27 0.27 62 1005.7
20260510003044 67 186 1.7 6.1 0.00 0.27 0.27 61 1005.7
20260510002540 67 180 1.7 6.1 0.00 0.27 0.27 60 1005.7
20260510002050 67 170 0.0 6.1 0.00 0.27 0.27 60 1005.7
20260510001507 67 87 0.9 6.1 0.00 0.27 0.27 59 1005.7
20260510001017 68 182 1.7 7.0 0.00 0.27 0.27 59 1005.6
20260510000536 68 197 2.6 7.0 0.00 0.27 0.27 58 1005.5
20260510000047 68 252 1.7 6.1 0.00 0.27 0.27 58 1005.5
20260509235505 68 291 0.9 7.0 0.00 0.27 0.27 58 1005.5
20260509235015 68 148 1.7 7.0 0.00 0.27 0.27 57 1005.5
20260509234539 69 96 0.0 7.0 0.00 0.27 0.27 57 1005.4
20260509234038 69 101 2.6 7.0 0.00 0.27 0.27 56 1005.4
20260509233557 69 113 1.7 7.0 0.00 0.27 0.27 57 1005.4
20260509233023 69 221 2.6 8.7 0.00 0.27 0.27 56 1005.5
20260509232523 69 126 3.5 8.7 0.00 0.27 0.27 56 1005.4
20260509232033 69 90 1.7 6.1 0.00 0.27 0.27 56 1005.3
20260509231604 69 223 0.9 8.7 0.00 0.27 0.27 57 1005.2
20260509231057 69 288 3.5 7.8 0.00 0.27 0.27 55 1005.3
20260509230512 70 123 1.7 12.2 0.00 0.27 0.27 56 1005.3
20260509230023 70 241 4.3 12.2 0.00 0.27 0.27 55 1005.3
20260509225537 70 169 2.6 11.3 0.00 0.27 0.27 54 1005.2
20260509225046 70 257 3.5 11.3 0.00 0.27 0.27 54 1005.2
20260509224502 70 204 2.6 8.7 0.00 0.27 0.27 53 1005.2
20260509224019 71 154 2.6 8.7 0.00 0.27 0.27 55 1005.1
20260509223531 71 237 0.9 13.0 0.00 0.27 0.27 54 1005.1
20260509223044 71 281 6.1 13.0 0.00 0.27 0.27 54 1005.2
20260509222555 71 209 4.3 10.4 0.00 0.27 0.27 53 1005.2
20260509222011 72 299 2.6 13.0 0.00 0.27 0.27 52 1005.3
20260509221521 72 203 5.2 13.0 0.00 0.27 0.27 51 1005.4
20260509221039 72 190 2.6 7.0 0.00 0.27 0.27 54 1005.4
20260509220545 72 282 2.6 11.3 0.00 0.27 0.27 53 1005.4
20260509220058 72 198 2.6 11.3 0.00 0.27 0.27 53 1005.5
20260509220001 72 273 3.5 11.3 0.00 0.27 0.27 54 1005.5
20260509215511 72 245 4.3 10.4 0.00 0.27 0.27 54 1005.6
20260509215026 72 153 1.7 8.7 0.00 0.27 0.27 54 1005.5
20260509214537 72 279 0.9 9.6 0.00 0.27 0.27 54 1005.6
20260509214052 72 252 4.3 9.6 0.00 0.27 0.27 53 1005.6
20260509213512 72 107 2.6 10.4 0.00 0.27 0.27 53 1005.5
20260509213019 72 126 5.2 10.4 0.00 0.27 0.27 51 1005.5
20260509212528 72 278 3.5 9.6 0.00 0.27 0.27 51 1005.5
20260509212045 73 155 1.7 9.6 0.00 0.27 0.27 56 1005.5
20260509211559 72 300 3.5 9.6 0.00 0.27 0.27 54 1005.4
20260509211009 72 280 1.7 9.6 0.00 0.27 0.27 52 1005.4
20260509210519 72 290 4.3 10.4 0.00 0.27 0.27 50 1005.5
20260509210036 72 192 3.5 11.3 0.00 0.27 0.27 51 1005.5
20260509205546 72 179 3.5 11.3 0.00 0.27 0.27 55 1005.5
20260509205056 72 211 3.5 9.6 0.00 0.27 0.27 52 1005.5
20260509205001 72 221 1.7 9.6 0.00 0.27 0.27 51 1005.5
20260509204515 72 261 5.2 9.6 0.00 0.27 0.27 51 1005.6
20260509204027 72 217 4.3 12.2 0.00 0.27 0.27 53 1005.7
20260509203543 71 326 4.3 12.2 0.00 0.27 0.27 53 1005.7